CDT,Max TemperatureF,Mean TemperatureF,Min TemperatureF,Max Dew PointF,MeanDew PointF,Min DewpointF,Max Humidity, Mean Humidity, Min Humidity, Max Sea Level PressureIn, Mean Sea Level PressureIn, Min Sea Level PressureIn, Max VisibilityMiles, Mean VisibilityMiles, Min VisibilityMiles, Max Wind SpeedMPH, Mean Wind SpeedMPH, Max Gust SpeedMPH,PrecipitationIn, CloudCover, Events, WindDirDegrees
2012-9-1,82,70,57,54,51,48,83,57,30,30.19,30.13,30.07,10,10,10,13,8,23,0.00,0,,82
2012-9-2,87,72,57,64,58,50,89,66,44,30.07,30.00,29.92,10,10,10,14,8,17,0.00,0,,111
2012-9-3,81,71,62,70,65,60,96,82,64,29.95,29.92,29.88,10,9,0,10,5,,0.00,2,Fog-Rain,214
2012-9-4,90,74,60,69,63,54,100,87,38,29.92,29.88,29.78,10,4,0,30,2,54,0.08,3,Fog-Rain,214
2012-9-5,81,70,57,60,56,51,90,66,38,29.86,29.80,29.77,10,10,10,18,5,22,0.00,2,Rain,307
2012-9-6,78,64,51,54,49,44,89,57,31,29.97,29.93,29.89,10,10,10,13,6,18,0.00,1,,307
2012-9-7,68,57,48,56,52,45,94,78,50,29.96,29.91,29.87,10,10,5,16,6,24,0.09,5,Rain,348
2012-9-8,69,56,46,55,49,44,94,82,48,29.95,29.88,29.79,10,9,2,16,8,23,0.22,3,Rain,304
2012-9-9,71,60,50,52,48,45,96,75,41,30.15,30.10,29.96,10,10,10,13,8,22,0.00,2,,328
2012-9-10,75,60,45,51,48,43,97,65,37,30.17,30.08,29.98,10,10,10,18,5,24,0.00,0,,193
2012-9-11,88,71,55,57,52,49,80,55,30,29.98,29.92,29.86,10,10,10,23,11,28,0.00,0,,193
2012-9-12,73,62,52,56,48,37,97,61,27,30.24,30.08,29.91,10,10,8,14,8,17,0.03,4,Rain,296
2012-9-13,68,57,48,51,46,36,97,73,33,30.34,30.30,30.26,10,10,7,13,5,20,0.01,3,Rain,269
2012-9-14,72,57,43,44,40,37,90,57,30,30.34,30.31,30.28,10,10,10,12,5,16,0.00,1,,297
2012-9-15,79,61,44,48,44,39,93,59,29,30.31,30.19,30.05,10,10,10,18,7,24,0.00,0,,178
2012-9-16,77,64,50,51,48,43,77,58,39,30.04,29.96,29.89,10,10,10,18,8,28,0.00,1,,212
2012-9-17,60,51,43,52,49,40,94,85,67,29.94,29.89,29.85,10,9,5,13,6,18,0.12,6,Rain,326
2012-9-18,57,45,35,41,31,21,96,64,26,30.01,29.97,29.94,10,10,10,20,8,28,0.00,2,,324
2012-9-19,68,52,36,47,39,30,90,64,43,29.99,29.80,29.64,10,10,10,28,9,38,0.00,4,Rain,211
2012-9-20,61,52,43,43,39,34,85,66,38,29.90,29.85,29.78,10,10,10,17,8,23,0.00,2,,275
2012-9-21,57,47,39,45,41,36,96,81,60,29.87,29.82,29.75,10,9,2,12,5,21,0.11,5,Rain,265
2012-9-22,57,45,35,43,36,31,100,82,41,30.20,29.95,29.74,10,9,1,23,11,33,0.10,7,Rain,312
2012-9-23,55,44,32,34,31,28,92,67,37,30.27,30.23,30.18,10,10,10,16,7,28,0.00,0,,290
2012-9-24,73,53,34,40,34,29,82,52,28,30.17,29.92,29.74,10,10,10,24,10,32,0.00,0,,237
2012-9-25,68,54,42,44,39,36,85,60,34,29.96,29.85,29.77,10,10,10,12,6,,0.00,0,,22
2012-9-26,62,49,36,37,34,31,93,60,31,30.22,30.10,29.97,10,10,10,9,4,,0.00,0,,27
2012-9-27,64,50,36,40,36,34,93,64,34,30.33,30.25,30.21,10,10,10,6,3,,0.00,0,,119
2012-9-28,70,54,39,42,38,34,86,58,28,30.25,30.19,30.11,10,10,10,7,4,,0.00,0,,282
2012-9-29,77,60,43,43,38,33,86,50,23,30.11,30.06,30.01,10,10,10,10,3,,0.00,0,,34
2012-9-30,69,54,41,43,40,37,89,62,32,30.06,30.01,29.95,10,10,10,10,4,,0.00,0,,99